Location: Gellin
(53.4498°N, 14.3207°E)
Time: 23:34:17
(UTC+00:00)

Cosmos 2322 - Pass Details

Date: 03 March 2021
Orbit: 841 x 853 km, 71.0° (Epoch: 12 April)

Event Time Altitude Azimuth Distance (km) Brightness Sun altitude
Rises 19:45:50 0° 218° (SW) 3,414 7.0 -27.0°
Reaches altitude 10° 19:48:18 10° 221° (SW) 2,482 6.2 -27.3°
Maximum altitude 19:53:59 71° 305° (NW) 907 3.9 -28.0°
Drops below altitude 10° 19:59:43 10° 30° (NNE) 2,493 6.1 -28.8°
Sets 20:02:12 0° 32° (NNE) 3,430 6.9 -29.1°
